This demonstration page uses our WeatherBlox Daily Observations layout. Learn more.

Left ArrowRight Arrow

44.31136, -96.79839

Hourly Observations for August 21, 2017

Temp ( °F °C ) Dew Point ( °F °C ) Humidity (%) Winds ( mph kmh ) Pressure ( in mb ) Visibility ( mi km ) Precip ( " mm )
1:56 am 01:56 Mostly Clear 61 16.1 59 15 93 93 Calm 30.03 1017 N/A 0.00 0.00
2:56 am 02:56 Clear 63 17.2 58 14.4 84 84 E 8 13 30.03 1017 N/A 0.00 0.00
3:46 am 03:46 Mostly Cloudy 63 17 57 14 83 83 E 7 11 30.00 1016 N/A 0.00 0.00
3:56 am 03:56 Cloudy 63 17.2 59 15 87 87 E 6 9 30.03 1017 N/A 0.00 0.00
4:14 am 04:14 Cloudy 63 17 59 15 88 88 ENE 7 11 29.97 1015 N/A 0.00 0.00
4:45 am 04:45 Mostly Cloudy 63 17 59 15 88 88 ENE 7 11 30.00 1016 N/A 0.00 0.00
4:56 am 04:56 Mostly Cloudy 63 17.2 59 15 87 87 E 7 11 30.03 1017 N/A 0.00 0.00
5:20 am 05:20 Cloudy 63 17 59 15 88 88 E 9 15 30.00 1016 N/A 0.00 0.00
5:56 am 05:56 Mostly Cloudy 63 17.2 59 15 87 87 E 7 11 30.04 1017 N/A 0.00 0.00
6:08 am 06:08 Cloudy 64 18 59 15 83 83 E 6 9 30.00 1016 N/A 0.00 0.00
6:56 am 06:56 Cloudy 64 17.8 60 15.6 87 87 SE 7 11 30.04 1017 N/A 0.00 0.00
7:49 am 07:49 Cloudy 64 18 61 16 88 88 ESE 6 9 29.97 1015 N/A 0.00 0.00
7:56 am 07:56 Cloudy 65 18.3 61 16.1 87 87 SE 6 9 30.01 1016 N/A 0.00 0.00
8:56 am 08:56 Cloudy 67 19.4 63 17.2 87 87 N 6 9 30.02 1017 N/A 0.00 0.00
9:56 am 09:56 Cloudy 68 20 64 17.8 87 87 N 5 7 30.05 1018 N/A 0.00 0.00
10:56 am 10:56 Cloudy 64 17.8 62 16.7 93 93 N 6 9 30.09 1019 N/A 0.00 0.00
11:05 am 11:05 Cloudy with Nearby Thunderstorms 64 18 63 17 94 94 Calm 30.03 1017 N/A 0.07 1.78
11:12 am 11:12 Cloudy with Nearby Thunderstorms 63 17 63 17 100 100 ESE 5 7 30.03 1017 N/A 0.15 3.81
11:27 am 11:27 Cloudy with Light Rain 64 18 63 17 94 94 Calm 30.00 1016 N/A 0.16 4.06
11:56 am 11:56 Mostly Cloudy with Light Rain 66 18.9 64 17.8 93 93 SSE 8 13 30.04 1017 N/A 0.16 4.06
12:56 pm 12:56 Mostly Cloudy 67 19.4 65 18.3 93 93 WSW 8 13 30.00 1016 N/A 0.00 0.03
1:56 pm 13:56 Mostly Cloudy with Light Rain 66 18.9 65 18.3 96 96 S 13 20 29.94 1014 N/A 0.00 0.03
2:56 pm 14:56 Cloudy with Light Rain 67 19.4 63 17.2 87 87 SSE 25 41 29.85 1011 N/A 0.03 0.76
3:22 pm 15:22 Mostly Cloudy 66 19 63 17 88 88 NW 21 33 29.85 1011 N/A 0.00 0.03
3:56 pm 15:56 Sunny 69 20.6 63 17.2 81 81 SW 5 7 29.93 1014 N/A 0.00 0.03
4:56 pm 16:56 Sunny 71 21.7 64 17.8 79 79 NNW 9 15 29.97 1015 N/A 0.00 0.00
5:56 pm 17:56 Mostly Sunny 72 22.2 63 17.2 73 73 NNW 7 11 29.98 1015 N/A 0.00 0.00
6:56 pm 18:56 Mostly Cloudy 71 21.7 63 17.2 76 76 WNW 7 11 30.00 1016 N/A 0.00 0.00
7:56 pm 19:56 Mostly Cloudy 70 21.1 64 17.8 82 82 W 5 7 30.00 1016 N/A 0.00 0.00
8:56 pm 20:56 Clear 66 18.9 62 16.7 87 87 W 3 6 30.01 1016 N/A 0.00 0.00
9:56 pm 21:56 Clear 64 17.8 61 16.1 90 90 Calm 30.01 1016 N/A 0.00 0.00
10:56 pm 22:56 Clear 62 16.7 60 15.6 93 93 Calm 30.05 1018 N/A 0.00 0.00
11:56 pm 23:56 Clear 62 16.7 59 15 90 90 NW 8 13 30.06 1018 N/A 0.00 0.00

Powered by AerisWeather